DateTimeUTC,F1_A11,F1_S11,BsB_S11,BsG_S11,BsR_S11,BbsB_S11,BbsG_S11,BbsR_S11,BaB_A11,BaG_A11,BaR_A11,Tu_S11,T_S11,Uu_S11,U_S11,P_S11,T1_A11
2021-04-25T16:00:00Z,00000200,20000000,,,,,,,0000.21,0000.24,-000.06,18.9,25.7,03.6,02.4,0683.5,31.1
2021-04-25T16:01:00Z,00000200,20000000,,,,,,,0000.07,-000.42,0000.06,18.9,25.7,03.6,02.4,0683.5,31.1
2021-04-25T16:02:00Z,00000200,20000000,,,,,,,-000.38,0000.23,-000.12,18.9,25.8,03.3,02.2,0683.5,31.2
2021-04-25T16:03:00Z,00000200,60000000,,,,,,,0001.00,0000.54,0000.56,18.9,25.8,03.3,02.2,0683.5,31.1
2021-04-25T16:04:00Z,00000200,40000000,0002.16,0001.52,0000.97,0000.38,0000.04,0000.47,0000.94,0000.87,0000.58,19.0,25.6,03.6,02.4,0684.4,31.1
2021-04-25T16:05:00Z,00000200,00000000,0001.24,0001.44,0001.15,0000.03,0000.43,0000.10,0000.20,0000.72,0000.52,19.1,25.6,03.6,02.4,0684.5,31.2
2021-04-25T16:06:00Z,00000200,00000000,0002.02,0001.54,0000.85,0000.10,0000.17,0000.07,0001.18,0000.67,0000.60,19.1,25.6,03.7,02.5,0684.5,31.1
2021-04-25T16:07:00Z,00000200,00000000,0001.88,0001.67,0000.78,0000.31,0000.25,0000.44,0000.76,0001.03,0000.71,19.1,25.6,03.8,02.5,0684.5,31.1
2021-04-25T16:08:00Z,00000200,00000000,0001.41,0001.67,0000.70,0000.47,0000.30,0000.01,0001.06,0000.42,0000.35,19.1,25.6,03.7,02.5,0684.4,31.2
2021-04-25T16:09:00Z,00000200,00000000,0001.70,0001.71,0001.01,-000.17,-000.02,0000.41,0000.73,0000.80,0000.69,19.1,25.5,03.8,02.6,0684.5,31.1
2021-04-25T16:10:00Z,00000200,00000000,0001.73,0001.14,0000.91,0000.60,0000.38,0000.46,0000.55,0000.61,0000.54,19.1,25.6,03.8,02.5,0684.5,31.1
2021-04-25T16:11:00Z,00000200,00000000,0001.31,0001.35,0001.04,0000.50,0000.05,0000.49,0000.57,0000.39,0000.16,19.1,25.6,03.7,02.5,0684.5,31.2
2021-04-25T16:12:00Z,00000200,00000000,0001.66,0001.65,0000.89,0000.23,0000.03,0000.20,0000.44,0000.72,0000.59,19.1,25.6,03.7,02.5,0684.5,31.1
2021-04-25T16:13:00Z,00000200,00000000,0001.90,0001.40,0000.95,0000.18,0000.32,0000.30,0000.68,0000.50,0000.28,19.1,25.6,03.6,02.4,0684.5,31.2
2021-04-25T16:14:00Z,00000200,00000000,0001.73,0001.06,0000.98,0000.34,0000.36,0000.14,0000.44,0000.54,0000.48,19.1,25.6,03.5,02.4,0684.5,31.2
2021-04-25T16:15:00Z,00000200,00000000,0001.68,0001.33,0001.16,0000.26,0000.32,0000.35,0000.77,0000.72,0000.53,19.1,25.6,03.4,02.3,0684.5,31.2
2021-04-25T16:16:00Z,00000200,00000000,0001.75,0001.29,0001.21,0000.66,0000.33,0000.29,0001.03,0000.49,0000.60,19.1,25.6,03.4,02.3,0684.5,31.2
2021-04-25T16:17:00Z,00000200,00000000,0001.60,0001.60,0001.10,0000.08,0000.25,0000.49,0000.79,0000.79,0000.64,19.1,25.6,03.4,02.3,0684.5,31.2
2021-04-25T16:18:00Z,00000200,00000000,0001.34,0001.15,0000.74,-000.12,0000.07,0000.14,0000.71,0000.83,0000.59,19.1,25.6,03.4,02.3,0684.5,31.2
2021-04-25T16:19:00Z,00000200,00000000,0001.02,0001.44,0000.87,0000.40,0000.22,0000.22,0000.39,0000.24,0000.07,19.1,25.6,03.5,02.4,0684.5,31.2
2021-04-25T16:20:00Z,00000200,00000000,0001.87,0001.30,0001.39,0000.18,0000.21,0000.66,0000.69,0000.75,0000.75,19.1,25.6,03.4,02.3,0684.5,31.1
2021-04-25T16:21:00Z,00000200,00000000,0001.46,0001.37,0000.97,0000.35,0000.16,0000.19,0000.77,0000.91,0000.31,19.2,25.6,03.4,02.3,0684.5,31.2
2021-04-25T16:22:00Z,00000200,00000000,0001.27,0001.45,0001.05,0000.18,0000.21,0000.48,0000.65,0000.31,0000.26,19.2,25.6,03.4,02.3,0684.5,31.2
2021-04-25T16:23:00Z,00000200,00000000,0001.76,0001.29,0001.13,0000.44,0000.25,0000.50,0001.11,0001.04,0000.61,19.1,25.6,03.5,02.4,0684.5,31.2
2021-04-25T16:24:00Z,00000200,00010000,0001.43,0001.31,0001.22,0000.25,0000.24,0000.22,0000.72,0000.56,0000.58,19.2,25.6,03.4,02.3,0684.5,31.1
2021-04-25T16:25:00Z,00000200,00000000,0001.48,0001.25,0001.29,-000.08,0000.31,0000.07,0000.65,0000.62,0000.63,19.1,25.6,03.5,02.3,0684.5,31.2
2021-04-25T16:26:00Z,00000200,00000000,0001.65,0001.30,0001.37,0000.58,0000.11,0000.45,0001.10,0001.03,0000.83,19.2,25.6,03.5,02.4,0684.5,31.2
2021-04-25T16:27:00Z,00000200,00000000,0002.05,0001.50,0001.20,0000.42,0000.11,0000.47,0000.90,0000.87,0000.65,19.2,25.6,03.6,02.4,0684.5,31.2
2021-04-25T16:28:00Z,00000200,00000000,0001.73,0001.14,0001.32,0000.47,0000.09,0000.39,0000.47,0000.25,0000.40,19.2,25.6,03.5,02.3,0684.6,31.2
2021-04-25T16:29:00Z,00000200,00000000,0002.04,0001.35,0000.90,0000.11,0000.53,0000.29,0000.56,0000.45,0000.26,19.2,25.6,03.4,02.3,0684.6,31.1
2021-04-25T16:30:00Z,00000200,00000000,0001.82,0001.33,0000.91,0000.16,0000.17,0000.29,0000.51,0000.69,0000.45,19.2,25.7,03.3,02.2,0684.6,31.2
2021-04-25T16:31:00Z,00000200,00000000,0001.88,0001.51,0001.18,0000.53,0000.12,0000.40,0000.45,0000.24,0000.37,19.2,25.6,03.3,02.2,0684.6,31.2
2021-04-25T16:32:00Z,00000200,00000000,0001.92,0001.40,0001.13,0000.58,0000.10,0000.41,0001.05,0001.02,0000.46,19.2,25.7,03.3,02.2,0684.6,31.2
2021-04-25T16:33:00Z,00000200,00000000,0001.65,0001.23,0000.88,0000.25,0000.09,0000.24,0000.64,0000.49,0000.60,19.2,25.7,03.4,02.3,0684.6,31.2
2021-04-25T16:34:00Z,00000200,00000000,0001.06,0001.41,0001.40,-000.08,0000.18,0000.37,0000.97,0000.85,0000.71,19.2,25.7,03.2,02.2,0684.6,31.2
2021-04-25T16:35:00Z,00000200,00000000,0001.36,0001.50,0000.60,0000.49,0000.30,-000.14,0000.56,0000.73,0000.05,19.2,25.7,03.3,02.2,0684.6,31.2
2021-04-25T16:36:00Z,00000200,00000000,0001.74,0001.37,0001.22,0000.50,0000.18,0000.37,0000.38,0000.39,0000.53,19.2,25.7,03.2,02.1,0684.6,31.2
2021-04-25T16:37:00Z,00000200,00000000,0001.36,0001.22,0001.11,-000.16,0000.23,0000.66,0000.95,0000.64,0000.97,19.2,25.7,03.0,02.1,0684.6,31.2
2021-04-25T16:38:00Z,00000200,00000000,0001.56,0001.36,0001.08,0000.27,-000.23,0000.32,0000.87,0000.81,0000.47,19.2,25.7,03.1,02.1,0684.6,31.2
2021-04-25T16:39:00Z,00000200,00000000,0001.46,0001.34,0001.04,0000.71,0000.27,-000.20,0000.66,0000.81,0000.37,19.2,25.7,03.1,02.1,0684.6,31.2
2021-04-25T16:40:00Z,00000200,00000000,0001.74,0001.55,0001.29,0000.24,0000.06,0000.19,0000.65,0000.81,0000.54,19.2,25.7,03.1,02.1,0684.6,31.2
2021-04-25T16:41:00Z,00000200,00000000,0001.53,0001.65,0001.22,0000.59,0000.46,0000.51,0000.72,0000.52,0000.48,19.2,25.7,03.2,02.2,0684.7,31.2
2021-04-25T16:42:00Z,00000200,00000000,0001.40,0001.36,0000.76,0000.04,0000.23,0000.45,0000.76,0000.62,0000.33,19.2,25.7,03.2,02.1,0684.7,31.2
2021-04-25T16:43:00Z,00000200,00000000,0002.15,0001.10,0000.94,0000.36,0000.31,0000.47,0001.00,0000.28,0001.06,19.2,25.7,03.2,02.2,0684.7,31.2
2021-04-25T16:44:00Z,00000200,00000000,0001.52,0001.51,0001.42,0000.18,0000.36,0000.38,0000.12,0000.62,-000.04,19.3,25.7,03.1,02.1,0684.7,31.2
2021-04-25T16:45:00Z,00000200,00000000,0001.78,0001.08,0001.15,0000.86,0000.38,0000.29,0001.41,0001.31,0000.54,19.2,25.7,03.1,02.1,0684.7,31.2
2021-04-25T16:46:00Z,00000200,00000000,0001.32,0001.56,0001.30,-000.21,0000.27,0000.14,0000.28,0000.32,0000.70,19.3,25.7,03.2,02.1,0684.7,31.2
2021-04-25T16:47:00Z,00000200,00000000,0001.70,0001.49,0001.11,0000.64,-000.15,0000.52,0001.13,0000.54,0000.54,19.3,25.7,03.2,02.2,0684.6,31.2
2021-04-25T16:48:00Z,00000200,00000000,0001.26,0001.46,0001.19,0000.60,0000.41,0000.66,0001.17,0001.55,0000.70,19.3,25.7,03.4,02.3,0684.6,31.2
2021-04-25T16:49:00Z,00000200,00000000,0001.19,0001.44,0001.07,0000.38,0000.12,0000.40,0000.93,0000.90,0000.92,19.3,25.7,03.4,02.3,0684.6,31.2
2021-04-25T16:50:00Z,00000200,00000000,0001.45,0001.35,0001.01,0000.73,0000.28,0000.26,0000.80,0000.57,0000.24,19.3,25.7,03.5,02.3,0684.7,31.2
2021-04-25T16:51:00Z,00000200,00000000,0001.90,0001.23,0001.03,0000.23,0000.12,0000.24,0000.87,0000.89,0000.73,19.3,25.7,03.4,02.3,0684.7,31.2
2021-04-25T16:52:00Z,00000200,00000000,0001.18,0001.57,0001.04,-000.25,0000.05,0000.19,0000.56,0000.61,0000.40,19.3,25.7,03.3,02.3,0684.7,31.2
2021-04-25T16:53:00Z,00000200,00000000,0001.15,0001.30,0000.87,0000.43,0000.20,0000.20,0000.36,0000.15,0000.34,19.3,25.7,03.3,02.2,0684.7,31.2
2021-04-25T16:54:00Z,00000200,00000000,0001.21,0001.39,0000.94,0000.18,-000.00,0000.37,0000.70,0000.77,0000.61,19.3,25.8,03.1,02.1,0684.7,31.2
2021-04-25T16:55:00Z,00000200,00000000,0001.23,0001.34,0001.00,0000.31,0000.00,0000.31,0000.85,0000.81,0000.37,19.3,25.8,03.2,02.2,0684.8,31.2
2021-04-25T16:56:00Z,00000200,00000000,0002.31,0001.16,0001.26,0000.59,-000.05,0000.52,0000.61,0000.68,0000.22,19.3,25.8,03.1,02.1,0684.8,31.2
2021-04-25T16:57:00Z,00000200,40000000,,,,,,,0000.55,0000.24,0000.55,19.3,25.8,03.3,02.2,0684.7,31.2
2021-04-25T16:58:00Z,00000200,60000000,,,,,,,-000.10,-000.30,0000.14,19.1,25.9,03.2,02.1,0683.7,31.2
2021-04-25T16:59:00Z,00000200,20000000,,,,,,,-000.30,-000.14,-000.28,19.1,26.0,03.2,02.1,0683.7,31.2
